Regional Weather Roundup
Issued by NWS Sterling, VA

Home | Current Version | Previous Version | Text Only | Print | Product List | Glossary Off
Versions: 1 2 3 4 5 6 7 8 9 10 11 12 13 14 15 16 17 18 19 20 21 22 23 24 25 26 27 28 29 30 31 32 33 34 35 36 37 38 39 40 41 42 43 44 45 46 47 48 49 50

902
ASUS41 KLWX 210810
RWRLWX

REGIONAL WEATHER ROUNDUP
NATIONAL WEATHER SERVICE BALTIMORE MD/WASHINGTON DC
300 AM EST TUE FEB 21 2017

Note: "FAIR" indicates few or no clouds below 12,000 feet
with no significant weather and/or obstructions to visibility.
 TC=TEMPERATURE CELSIUS

 * =Non NWS site. Station does not report precipitation (e.g. rain,
    snow, etc.), thunder, or fog.

DCZ001-MDZ009-015-VAZ040>042-051-053>054-210900-
WASHINGTON METRO

CITY           SKY/WX    TMP DP  RH WIND       PRES   REMARKS
WASHINGTON NAT CLOUDY    46  22  38 E8        30.34R
DULLES         MOCLDY    39  24  55 CALM      30.32S
ANDREWS AFB    PTCLDY    43  22  44 E6        30.32R
FT BELVOIR     CLOUDY    38  29  70 CALM      30.32S
QUANTICO       CLOUDY    40  37  89 CALM      30.33S
COLLEGE PARK*  CLEAR     41  21  45 CALM      30.34R
LEESBURG*      MOCLDY    45  30  57 MISG      30.33S
MANASSAS*      PTCLDY    32  29  88 CALM      30.33R
GAITHERSBURG*  CLOUDY    39  14  35 E3        30.36S

$$

MDZ006>007-011-014-210900-
BALTIMORE METRO

CITY           SKY/WX    TMP DP  RH WIND       PRES   REMARKS
BWI AIRPORT    MOCLDY    40  22  48 E8        30.33S
MD SCIENCE CTR   N/A     44  16  32 MISG      30.34R
ANNAPOLIS      CLOUDY    44  27  51 E7        30.32S
FORT MEADE*    PTCLDY    37  23  56 CALM      30.36R

$$

MDZ012-015-019>023-210900-
MARYLAND EASTERN SHORE

CITY           SKY/WX    TMP DP  RH WIND       PRES   REMARKS
OCEAN CITY     CLOUDY    41  34  76 NE9       30.31F
SALISBURY      PTCLDY    37  30  75 NE5       30.31F
BAY BRIDGE AP* PTCLDY    41  25  52 E7        30.32F
EASTON*        PTCLDY    40  24  53 E6        30.36S

$$

MDZ017>025-210900-
SOUTHERN MARYLAND

CITY           SKY/WX    TMP DP  RH WIND       PRES   REMARKS
PATUXENT RIVER PTCLDY    40  35  83 E7        30.31S
ST INIGOES     MOCLDY    43  34  70 E7        30.30S
LEONARDTOWN*   PTCLDY    43  32  65 CALM      30.34R

$$

MDZ003>005-210900-
NORTH CENTRAL MARYLAND

CITY           SKY/WX    TMP DP  RH WIND       PRES   REMARKS
FREDERICK*     CLOUDY    32  32 100 CALM      30.36S
HAGERSTOWN APT CLOUDY    42  21  43 E6        30.29F
WESTMINSTER*   PTCLDY    39  16  38 CALM      30.32R

$$

MDZ501>502-210900-
WESTERN MARYLAND

CITY           SKY/WX    TMP DP  RH WIND       PRES   REMARKS
OAKLAND*       PTCLDY    37  28  70 SE16      30.18F WCI  28
CUMBERLAND*    PTCLDY    41  32  70 CALM      30.30S

$$

VAZ025>031-210900-
SHENANDOAH VALLEY

CITY           SKY/WX    TMP DP  RH WIND       PRES   REMARKS
WINCHESTER*    PTCLDY    41  28  60 CALM      30.29R
FRONT ROYAL*   PTCLDY    41  32  70 CALM      30.27S
LURAY*         CLOUDY    45  34  65 CALM      30.27S
NEW MARKET*    PTCLDY    33  30  90 CALM      30.27S
STAUNTON*      PTCLDY    46  31  57 SE5       30.28F
WAYNESBORO*    CLOUDY    46  30  53 SE9       30.27S

$$

WVZ021-048>050-054>055-210900-
EASTERN WEST VIRGINIA PANHANDLE

CITY           SKY/WX    TMP DP  RH WIND       PRES   REMARKS
MARTINSBURG    PTCLDY    40  27  59 CALM      30.30R
PETERSBURG*    CLOUDY    36  34  92 CALM      30.25F

$$

VAZ036>039-050-210900-
CENTRAL FOOTHILLS

CITY           SKY/WX    TMP DP  RH WIND       PRES   REMARKS
CHARLOTTESVILL CLOUDY    47  32  56 N3        30.29F
CULPEPER*      PTCLDY    35  33  90 CALM      30.32S
ORANGE*        CLOUDY    36  32  87 CALM      30.32S
GORDONSVILLE*  CLOUDY    36  33  89 CALM      30.30S
WARRENTON*     PTCLDY    33  29  85 CALM      30.31R

$$

VAZ055>057-210900-
NORTH AND CENTRAL PIEDMONT

CITY           SKY/WX    TMP DP  RH WIND       PRES   REMARKS
FREDERICKSBRG* PTCLDY    39  35  84 CALM      30.30S
STAFFORD*      CLOUDY    35  33  92 CALM      30.35S

$$

NCZ024-NYZ072-PAZ021-071-VAZ022-071-210900-
OTHER REGIONAL OBSERVATIONS

CITY           SKY/WX    TMP DP  RH WIND       PRES   REMARKS
NEW YORK CITY  CLEAR     37   9  31 NE6       30.38F
PHILADELPHIA   CLOUDY    36  16  44 NE3       30.36R
PITTSBURGH     CLOUDY    47  32  56 E7        30.11F
ROANOKE        MOCLDY    50  37  61 SE10      30.27R
RICHMOND       PTCLDY    42  36  79 CALM      30.29S
RALEIGH        MOCLDY    52  38  58 SE6       30.25S

$$

ANZ530>537-210900-
MARINE OBSERVATIONS

STATION/POSITION TIME  TEMP    WIND        PRES
                       AIR SEA DIR/SP/G
                 (UTC) (F)     (DEG/KT/KT) (MB)
THOMAS PT LIGHT  0800   42 42   90/ 11/ 11   N/A
BALT KEY BRIDGE  0742   43      90/ 13/ 14 1027.2R
COVE POINT       0742   43     130/  9/ 12 1027.2R
LEWISETTA        0742   42 47   10/  2/  2 1026.3R
SOLOMONS ISLAND  0742   44 44  100/ 10/ 11   N/A
PINEY POINT      0748          120/  4/  4   N/A

$$





USA.gov is the U.S. government's official web portal to all federal, state and local government web resources and services.